Ord, NE

11:15 PM CST on February 11, 2016 (GMT -0600)
Sharp

Weather History for KODX - January, 2015

Change the Weather History Date:

Tuesday, January 13, 2015

  Actual Average Record
Temperature  
Mean Temperature 14 °F 24 °F  
Max Temperature 27 °F 37 °F 59 °F (2004)
Min Temperature 0 °F 12 °F -8 °F (1997)
Degree Days  
Heating Degree Days 51 41  
Month to date heating degree days 670 533  
Since 1 July heating degree days 3437 3257  
Cooling Degree Days 0 0  
Month to date cooling degree days 0 0  
Year to date cooling degree days 0 0  
Moisture  
Dew Point 5 °F    
Average Humidity 69    
Maximum Humidity 87    
Minimum Humidity 50    
Precipitation  
Precipitation 0.00 in 0.01 in 0.25 in (1930)
Month to date precipitation 0.05 0.12  
Year to date precipitation 0.05 0.12  
Sea Level Pressure  
Sea Level Pressure 30.55 in    
Wind  
Wind Speed 8 mph (South)    
Max Wind Speed 17 mph    
Max Gust Speed 22 mph    
Visibility 10 miles    
Events      
T = Trace of Precipitation, MM = Missing Value Source: NWS Daily Summary

Daily Weather History Graph

Daily Weather History Graph

Search for Another Location

Airport or City:

Trip Planner

Search our weather history database for the weather conditions in past years. The results will help you decide how hot, cold, wet, or windy it might be!

Date:

Astronomy

Jan. 13, 2015 Rise Set
Actual Time 8:01 AM CST 5:28 PM CST
Civil Twilight 7:30 AM CST 5:58 PM CST
Nautical Twilight 6:56 AM CST 6:33 PM CST
Astronomical Twilight 6:22 AM CST 7:06 PM CST
Moon 12:54 AM CST (1/13) 12:12 PM CST (1/13)
Length of Visible Light 10h 28m
Length of Day
9h 27m
Waning Gibbous, 47% of the Moon is Illuminated
Jan 13
Waning Gibbous
Jan 20
New
Jan 26
First Quarter
Feb 3
Full
Feb 11
Last Quarter

Hourly Weather History & Observations

Time (CST) Temp. Windchill Dew Point Humidity Pressure Visibility Wind Dir Wind Speed Gust Speed Precip Events Conditions
12:53 AM 1.0 °F -10.3 °F -5.1 °F 75% 30.73 in 10.0 mi South 5.8 mph - N/A   Clear
1:53 AM 1.9 °F -10.6 °F -4.0 °F 76% 30.70 in 10.0 mi SSE 6.9 mph - N/A   Overcast
2:53 AM 3.9 °F -10.4 °F -2.9 °F 73% 30.69 in 10.0 mi SSE 9.2 mph - N/A   Overcast
3:53 AM 3.9 °F -9.4 °F -2.0 °F 76% 30.69 in 10.0 mi SE 8.1 mph - N/A   Overcast
4:53 AM 3.9 °F -10.4 °F -0.9 °F 80% 30.67 in 10.0 mi SSE 9.2 mph - N/A   Mostly Cloudy
5:53 AM 3.0 °F -10.5 °F -2.0 °F 80% 30.65 in 10.0 mi SSE 8.1 mph - N/A   Clear
6:53 AM 1.9 °F -9.2 °F -2.9 °F 80% 30.65 in 10.0 mi SSE 5.8 mph - N/A   Clear
7:53 AM 3.0 °F -11.5 °F -2.0 °F 80% 30.64 in 10.0 mi South 9.2 mph - N/A   Overcast
8:53 AM 3.0 °F -10.5 °F -2.0 °F 80% 30.63 in 10.0 mi SSE 8.1 mph - N/A   Overcast
9:53 AM 7.0 °F -5.7 °F 1.9 °F 80% 30.64 in 10.0 mi South 8.1 mph - N/A   Overcast
10:53 AM 12.0 °F -2.0 °F 5.0 °F 73% 30.62 in 10.0 mi South 11.5 mph - N/A   Overcast
11:53 AM 16.0 °F 1.1 °F 6.1 °F 65% 30.59 in 10.0 mi South 15.0 mph - N/A   Overcast
12:53 PM 18.0 °F 4.2 °F 6.1 °F 60% 30.53 in 10.0 mi South 13.8 mph - N/A   Overcast
1:53 PM 21.9 °F 8.2 °F 8.1 °F 55% 30.49 in 10.0 mi South 16.1 mph - N/A   Overcast
2:53 PM 24.8 °F 12.9 °F 8.6 °F 50% 30.35 in 10.0 mi SSW 13.8 mph - N/A   Clear
3:53 PM 26.1 °F 16.2 °F 10.0 °F 51% 30.46 in 10.0 mi South 10.4 mph - N/A   Overcast
4:53 PM 26.1 °F 16.8 °F 10.9 °F 53% 30.45 in 10.0 mi SW 9.2 mph - N/A   Mostly Cloudy
5:53 PM 21.0 °F 13.4 °F 10.9 °F 65% 30.46 in 10.0 mi SSW 5.8 mph - N/A   Clear
6:53 PM 17.1 °F 10.0 °F 10.0 °F 74% 30.47 in 10.0 mi SSW 4.6 mph - N/A   Clear
7:53 PM 17.1 °F 11.7 °F 10.0 °F 74% 30.47 in 10.0 mi SSW 3.5 mph - N/A   Clear
8:53 PM 19.0 °F 11.1 °F 12.0 °F 74% 30.45 in 10.0 mi SSW 5.8 mph - N/A   Overcast
9:53 PM 19.0 °F - 12.9 °F 77% 30.43 in 10.0 mi Calm Calm - N/A   Scattered Clouds
10:53 PM 19.0 °F - 14.0 °F 81% 30.43 in 10.0 mi Calm Calm - N/A   Clear
11:53 PM 16.0 °F - 12.9 °F 88% 30.42 in 8.0 mi Calm Calm - N/A   Clear